THORAD AGENA D DEB, 42550

Orbit data source: Space-Track

THORAD AGENA D DEB, 42550 is space debris in SSO originally from a launch on Wed, 08 Apr 1970 UTC launched from the Air Force Western Test Range (AFWTR). Debris objects in space refer to the collection of defunct objects orbiting the Earth. Examples of debris include non-operational satellites, rocket bodies, and fragments generated from explosions, collisions, or faulty payload assembly.

Loading next visibility...
Identifier
42550, 1970-025TG
Orbit
SSO
Country
Flag of USUS
Related business
Manufacturer
Unknown
Mission
Spacecraft
Bus & Motor
Unknown
Mass
Unknown
Launch date (UTC)
1970-04-08 (56 years ago)
Launch vehicle
Unknown
Launch site
Air Force Western Test Range (AFWTR)
Object type
Payload
Rocket body
Debris
Shape & HBR
Unknown shape, 0.1 m
Radar Cross Section
Small (<0.1 m²)

Expand to show TLE details & history
Last TLE update: 4 days ago

TLE from 4 days ago
0 THORAD AGENA D DEB
1 42550U 70025TG  26119.10530889  .00000955  00000-0  52451-3 0  9992
2 42550  99.2649  65.2552 0022332  24.2051 350.4324 14.14219586639806
Epoch: 2026-04-29T02:31Z
TLE epoch observation values (Epoch: 2026-04-29T02:31:38.688Z)
Latitude
14.37254°
Longitude
167.88994°
Altitude
831.224 km
Speed
7.447 km/s
True Right ascension
04h 11m 29s
True Declination
14° 17' 27"
Sunlit
Object was in daylight at epoch
Visualization orbit readout
Latitude
Unknown
Longitude
Unknown
Altitude
Unknown
Speed
Unknown
Apparent Right ascension
Unknown
Apparent Declination
Unknown
Sunlit
N/A
Visualization observer readout
Local Sidereal Time
17:30:37
Azimuth
Unknown
Elevation
Unknown
Doppler factor
Unknown
Orbital elements
Apogee altitude
858.286 km
Perigee altitude
826.038 km
Semi-major axis
7,220.299 km
Eccentricity
0.00223
Inclination
99.2649°
RAAN
65.2552°
Arg. of periapsis
24.2051°
True anomaly
350.38975°
Mean anomaly
350.4324°
Eccentric anomaly
350.41109°
Mean motion
3.53761 °/min
Orbital period
101.76 mins
BSTAR
0.00052451

Documentation

Showing up to 5 results
|